Location: Newark
(25.0000°N, 73.5000°E)
Time: 07:49:42
(UTC+00:00)

ISS - Visible Passes

Search period start: 18 June 2021 00:00
Search period end: 28 June 2021 00:00
Orbit: 417 x 422 km, 51.6° (Epoch: 18 June)

Date Brightness Start Highest point End Pass type
(mag) Time Alt. Az. Time Alt. Az. Time Alt. Az.
19 Jun -1.6 23:47:53 10° S 23:50:34 23° SE 23:53:17 10° ENE visible
20 Jun -1.0 23:02:09 10° SE 23:03:16 11° SE 23:04:25 10° ESE visible
21 Jun -3.7 23:48:59 10° SW 23:52:19 74° NW 23:55:40 10° NE visible
22 Jun -3.1 23:03:18 25° SSW 23:04:55 48° SE 23:08:10 10° NE visible
23 Jun -1.7 22:18:00 22° ESE 22:18:00 22° ESE 22:20:17 10° ENE visible
23 Jun -1.8 23:51:51 10° W 23:54:17 18° NW 23:56:44 10° N visible
24 Jun -2.7 23:05:35 26° W 23:06:45 34° NW 23:09:51 10° NNE visible
25 Jun -2.8 22:20:07 47° NNE 22:20:07 47° NNE 22:22:38 10° NE visible
26 Jun -0.6 21:34:34 14° NE 21:34:34 14° NE 21:35:08 10° NE visible
26 Jun -1.1 23:08:07 10° NW 23:08:50 11° NW 23:09:34 10° NNW visible
27 Jun -1.4 22:21:55 17° NNW 22:21:55 17° NNW 22:23:39 10° N visible
